Back to catalog

RASSVET-3 23

AlivePO
NORAD 100089·PAYLOAD·🇷🇺 Russia

Launched Jul 19, 2026 from Plesetsk Cosmodrome

Loading…

Next Passes (next 24 hours)

TLE

FreshSource: Space-Track

Epoch: Sep 14, 2026, 13:07 UTC

1 A0089U 26165G   26257.54707374  .00125554  49653-5  27024-3 0  9998
2 A0089  82.2979 166.4752 0019355 197.2609 162.8012 15.98036253  9027

Track RASSVET-3 23 in real time with AllMySat

Download on the App Store